Regional Weather Roundup
Issued by NWS Wakefield, VA

Home | Current Version | Previous Version | Graphics & Text | Print | Product List | Glossary On
Versions: 1 2 3 4 5 6 7 8 9 10 11 12 13 14 15 16 17 18 19 20 21 22 23 24 25 26 27 28 29 30 31 32 33 34 35 36 37 38 39 40 41 42 43 44 45 46 47 48 49 50
000
ASUS41 KAKQ 271210
RWRAKQ

REGIONAL WEATHER ROUNDUP
NATIONAL WEATHER SERVICE WAKEFIELD VA
800 AM EDT SUN JUL 27 2014

Note: "fair" indicates few or no clouds below 12,000 feet with no
significant weather and/or obstructions to visibility. * = Denotes
station may not report precipitation (e.g., rain,snow,etc.),
thunder or fog.

VAZ042-051-052>054-056-271300-
NORTHERN VIRGINIA

CITY           SKY/WX    TMP DP  RH WIND       PRES   REMARKS
WASH NATIONAL  CLOUDY    75  66  73 CALM      29.85R
DULLES         CLOUDY    70  66  87 VRB5      29.86R
FORT BELVOIR   CLOUDY    70  68  93 CALM      29.85R
QUANTICO       CLOUDY    70  67  90 W12       29.83S
FREDERICKSBRG* CLOUDY    71  71 100 S5        29.85F
STAFFORD*      CLOUDY    70  70 100 S5        29.88S
WARRENTON      CLOUDY    71  71 100 SW6       29.86R
CULPEPER*      CLOUDY   N/A N/A N/A SW6       29.88R
MANASSAS*      MOSUNNY   70  68  94 W3        29.84S
LEESBURG*      CLOUDY    70  70 100 W5        29.87R
WINCHESTER     CLOUDY    70  64  83 SW14      29.87S
$$

VAZ048-049-060>072-079>083-271300-
CENTRAL AND SOUTH CENTRAL VIRGINIA...AND NORTH CENTRAL NORTH CAROLINA

CITY           SKY/WX    TMP DP  RH WIND       PRES   REMARKS
RICHMOND       LGT RAIN  73  70  90 N3        29.93R FOG
CHESTERFIELD*  CLOUDY    72  61  68 W7        29.98R
HANOVER        LGT RAIN  71  69  93 SW5       29.93F FOG
TAPPAHANNOCK*  TSTM      73  69  87 CALM      29.89F
CHARLOTTSVILLE LGT RAIN  69  67  93 CALM      29.90F
ORANGE*        RAIN      68  66  94 S9        29.91R
LOUISA*        DRIZZLE   70  68  94 CALM      29.91S
FARMVILLE*     CLOUDY    72  72 100 CALM      29.92R THUNDER
SOUTH HILL*    CLOUDY    73  73 100 CALM      29.97S
ROANOKE RAPIDS NOT AVBL
RALEIGH        PTSUNNY   75  70  84 SW5       29.94R
$$

VAZ088>098-271300-
SOUTHEAST VIRGINIA

CITY           SKY/WX    TMP DP  RH WIND       PRES   REMARKS
NORFOLK        CLOUDY    77  72  84 SW7       29.92R
VIRGINIA BEACH CLOUDY    76  73  91 W9        29.92R
NORFOLK NAVAL  CLOUDY    78  72  81 VRB6      29.94R
WEST POINT*    CLOUDY    75  70  86 CALM      29.92F
NEWPORT NEWS   LGT RAIN  80  70  71 NW13G18   29.92R
LANGLEY AFB    DRIZZLE   77  77 100 NW2       29.91R
FORT EUSTIS    LGT RAIN  76  75  96 N5        29.90R
WILLIAMSBURG*  CLOUDY    75  73  94 N5        29.92F
FRANKLIN*      CLOUDY    75  75 100 CALM      29.93S
WAKEFIELD      LGT RAIN  75  71  87 SW3       29.92R
$$

VAZ020-022-025-037-045-271300-
WESTERN AND SOUTHWEST VIRGINIA

CITY           SKY/WX    TMP DP  RH WIND       PRES   REMARKS
STAUNTON*      CLOUDY    68  65  91 CALM      29.95F
HOT SPRINGS VA CLOUDY    62  60  94 W13       30.07R
LYNCHBURG      CLOUDY    70  69  97 CALM      29.95R
DANVILLE       CLOUDY    73  69  87 W6        29.95R
MARTINSVILLE   LGT RAIN  74  68  81 E7        29.95F
ROANOKE        LGT RAIN  71  68  90 NE8       29.94F
BLACKSBURG     CLOUDY    68  68 100 CALM        N/A
DUBLIN*        CLOUDY    69  68  96 CALM      29.99F
MARION*        CLOUDY   N/A N/A N/A W5        30.04S HAZE
HILLSVILLE*    LGT RAIN  67  64  89 CALM      30.02R
RICHLANDS*     CLOUDY    70  66  87 W3        30.03S
WISE*          CLOUDY    66  64  94 W10       30.06R
ABINGDON*      CLOUDY    70  69  98 CALM      30.02R FOG
$$

MDZ021>025-VAZ099-100-271300-
SOUTHERN MARYLAND AND THE DELMARVA PENINSULA

CITY           SKY/WX    TMP DP  RH WIND       PRES   REMARKS
PATUXENT RIVER LGT RAIN  71  69  93 S14       29.82F
BAY BRIDGE APT   N/A     73  70  88 CALM      29.82S
LEONARDTOWN    CLOUDY    70  66  88 S12       29.84F
DOVER          CLOUDY    74  74 100 SW5       29.81S
GEORGETOWN     LGT RAIN  75  72  90 S14       29.84F
EASTON         CLOUDY    75  75 100 N6        29.87S
CAMBRIDGE      CLOUDY    77  70  78 S13       29.79F
SALISBURY      NOT AVBL
OCEAN CITY     LGT RAIN  77  74  90 SW8       29.87R
WALLOPS ISLAND LGT RAIN  78  73  84 W9        29.90R
ACCOMACK*      RAIN      77  72  83 W8G17     29.91R
$$

NCZ012>017-030>032-271300-
EASTERN NORTH CAROLINA

CITY           SKY/WX    TMP DP  RH WIND       PRES   REMARKS
ELIZABETH CITY CLOUDY    79  75  87 SW7       29.93R FOG
AHOSKIE*       CLOUDY    74  72  92 CALM      29.94R
EDENTON*       CLOUDY    78  75  91 SW5       29.93S
CURRITUCK*     CLOUDY    80  75  86 SW3       29.93S
KILL DEVIL HLS CLOUDY    79  76  90 SW5       29.93S
MANTEO         NOT AVBL
CAPE HATTERAS  MOSUNNY   81  79  94 SW7       29.95S
GOLDSBORO      PTSUNNY   77  77  99 SW5       29.92R
WASHINGTON     PTSUNNY   76  74  94 SW3       29.94S
GREENVILLE     PTSUNNY   77  75  94 SW5       29.95S FOG
NEW BERN       PTSUNNY   80  76  87 SW3       29.96S FOG
WILMINGTON     SUNNY     81  77  88 SW6       29.95S
$$

VAZ048-271300-
ELSEWHERE

CITY           SKY/WX    TMP DP  RH WIND       PRES   REMARKS
HARRISBURG PA  PTSUNNY   75  65  70 VRB3      29.81R
BALTIMORE      CLOUDY    73  69  87 W7        29.83R
ANNAPOLIS      CLOUDY    75  69  81 CALM      29.81R
ANDREWS AFB    CLOUDY    72  69  89 W8        29.85R
WILMINGTON DE  CLOUDY    74  72  93 SW5       29.81F
PHILADELPHIA   CLOUDY    74  70  87 S9        29.80F
WILDWOOD NJ*   CLOUDY    75  70  83 SW9       29.83F
ATLANTIC CITY  CLOUDY    74  72  93 SW8       29.82S
HENDERSON NC   CLOUDY    73  69  88 CALM      29.94R
GREENSBORO     PTSUNNY   75  67  76 E5        29.93F
ROCKY MOUNT    PTSUNNY   76  74  93 S5        29.92S FOG
FAYETTEVILLE   MOSUNNY   78  75  90 SW8       29.94R FOG
CHARLOTTE      PTSUNNY   74  68  81 NW8       29.99R THUNDER
$$

VAZ100-271300-
MARINE

STATION/POSITION TIME  TEMP    WIND        PRES    WAVE   SWELL
                       AIR SEA DIR/SP/G            HT/PER HT/PER
                 (UTC) (F)     (DEG/KT/KT) (MB)    (FT/S) (FT/S)
44066 TX TWR #4  1200   75 74  190/ 12/ 14 1011.1F   2/ 5   2/ 6
CAPE MAY NJ      1200   74 77  210/  9/ 12 1009.6F
LEWES DE         1200   75 71  230/  6/ 10 1009.9F
15NM E FENWICK I 1200   76 76              1010.8R   3/ 5
OCEAN-CITY-INLET 1200   76 71  260/  8/ 10 1010.8S
WACHAPREAGUE VA  1200   76 79  260/  4/  8 1012.6R
THOMAS POINT MD  1200   75 79  190/  8/  9 1009.9F
GOOSES REEF MD   1200   76     220/ 19/ 23 1008.8F
COVE POINT MD    1200   73     220/ 25/ 28 1008.0F
SOLOMONS ISLAND  1200      81                N/A
BISHOPS HEAD MD  1200   77 77  260/ 14/ 16 1011.1F
PINEY POINT MD   1200          260/  5/  8   N/A
POTOMAC MD       1200   76     260/ 12/ 16 1011.3F
CAMBRIDGE MD     1200   75 80  190/ 10/ 18 1007.9F
LEWISETTA VA     1200   74 80  230/  6/  7 1011.7F
RAPPAHANNOCK LGT 1200          280/ 15/ 17 1013.3R
STINGRAY PT      1200   77     300/ 14/ 16 1013.5R
YORK RVR RNG VA  1200   77     310/ 14/ 16 1012.5S
YORKTOWN VA      1200   77 80  300/ 11/ 15 1012.7F
JAMESTOWN VA     1200   76      10/  8/ 12   N/A
DOMINION TERM VA 1200   77     290/  8/ 11 1013.3R
KIPTOPEKE VA     1200      81  280/ 15/ 17   N/A
CHES BAY BRIDGE  1200   78 79  230/ 14/ 16 1012.5R
CAPE HENRY VA    1200   76     220/ 10/ 13 1011.8R
WILLOUBY STN VA  1200          250/  9/ 11 1012.4R
S CRANEY ISL VA  1200          230/  5/  8 1013.2R
CAPE HENRY BUOY  1200      77                N/A     2/ 4
1ST LANDING BUOY 1200   78     240/ 12/ 14 1012.6R
CAPE CHARLES BUO 1200      76                N/A     2/ 4
OFFSHORE WE BUOY 1200      78                N/A     3/ 7
64NM E OF VA BCH 1200   79 78  210/ 14/ 16 1012.7R   2/ 7   2/ 7
DUCK PIER NC     1200   80 74  220/  9/ 13 1012.7F
44056 DUCK FRF   1200                        N/A     1/ 7
OREGON INLET NC  1200   80 80  220/ 13/ 15 1013.7S
HATTERAS NC      1200   81 82  240/  6/  8 1014.7R
DIAMOND SHLS NC  1200          VRB 12/ 14  1014.2R   3/ 6   2/ 6
CAPE LOOKOUT NC  1100   81     240/  6/  8 1014.2R
$$



USA.gov is the U.S. government's official web portal to all federal, state and local government web resources and services.